TimeEDT,TemperatureF,Dew PointF,Humidity,Sea Level PressureIn,VisibilityMPH,Wind Direction,Wind SpeedMPH,Gust SpeedMPH,PrecipitationIn,Events,Conditions,WindDirDegrees,DateUTC
12:51 AM,46.0,44.1,93,30.08,7.0,Calm,Calm,-,N/A,,Clear,0,2013-09-24 04:51:00
1:51 AM,50.0,46.0,86,30.06,10.0,SSE,6.9,-,N/A,,Clear,160,2013-09-24 05:51:00
2:51 AM,51.1,46.9,86,30.06,10.0,SSE,8.1,-,N/A,,Clear,160,2013-09-24 06:51:00
3:51 AM,53.1,46.9,80,30.05,10.0,SSE,8.1,-,N/A,,Clear,150,2013-09-24 07:51:00
4:51 AM,53.1,48.0,83,30.05,10.0,SSE,8.1,-,N/A,,Clear,150,2013-09-24 08:51:00
5:51 AM,52.0,48.9,89,30.06,10.0,SE,9.2,-,N/A,,Clear,140,2013-09-24 09:51:00
6:51 AM,50.0,48.0,93,30.08,10.0,SE,5.8,-,N/A,,Clear,130,2013-09-24 10:51:00
7:51 AM,48.9,46.0,90,30.09,7.0,Calm,Calm,-,N/A,,Clear,0,2013-09-24 11:51:00
8:51 AM,55.0,50.0,83,30.09,10.0,Calm,Calm,-,N/A,,Clear,0,2013-09-24 12:51:00
9:49 AM,60.8,53.6,77,30.11,10.0,Calm,Calm,-,N/A,,Mostly Cloudy,0,2013-09-24 13:49:00
9:51 AM,60.1,53.1,78,30.09,10.0,Calm,Calm,-,N/A,,Mostly Cloudy,0,2013-09-24 13:51:00
10:52 AM,64.0,54.0,70,30.08,-9999.0,SW,5.8,-,N/A,,Unknown,220,2013-09-24 14:52:00
11:51 AM,66.9,54.0,63,30.06,10.0,West,9.2,19.6,N/A,,Unknown,280,2013-09-24 15:51:00
12:51 PM,70.0,53.1,55,30.04,10.0,Variable,3.5,-,N/A,,Clear,0,2013-09-24 16:51:00
1:51 PM,71.1,53.1,53,30.01,10.0,NNW,6.9,-,N/A,,Scattered Clouds,340,2013-09-24 17:51:00
2:51 PM,73.0,52.0,48,29.98,10.0,Calm,Calm,-,N/A,,Clear,0,2013-09-24 18:51:00
3:51 PM,73.0,53.1,49,29.97,10.0,NNW,10.4,-,N/A,,Mostly Cloudy,340,2013-09-24 19:51:00
4:51 PM,72.0,54.0,53,29.95,10.0,NE,6.9,-,N/A,,Clear,40,2013-09-24 20:51:00
5:51 PM,69.1,55.0,61,29.95,10.0,NNE,6.9,-,N/A,,Partly Cloudy,30,2013-09-24 21:51:00
6:51 PM,66.0,55.9,70,29.96,10.0,North,4.6,-,N/A,,Clear,10,2013-09-24 22:51:00
7:51 PM,60.1,55.0,83,29.97,10.0,Calm,Calm,-,N/A,,Clear,0,2013-09-24 23:51:00
8:51 PM,59.0,55.0,87,29.97,10.0,Calm,Calm,-,N/A,,Clear,0,2013-09-25 00:51:00
9:51 PM,55.9,54.0,93,29.97,10.0,Calm,Calm,-,N/A,,Clear,0,2013-09-25 01:51:00
10:51 PM,55.0,52.0,89,29.97,9.0,Calm,Calm,-,N/A,,Clear,0,2013-09-25 02:51:00
11:51 PM,55.0,53.1,93,29.96,10.0,Calm,Calm,-,N/A,,Clear,0,2013-09-25 03:51:00